[[{"header":{"parameterUnit":"m.s-1","parameterCategory":1,"la1":30.2991,"la2":30.254,"lo1":-89.0895,"lo2":-89.0444,"dy":0.0017,"dx":0.0017,"nx":28,"ny":28,"refTime":"2024-03-13T09:00:00:Z","depth":0,"parameterNumber":2,"parameterNumberName":"U-component_of_WINDS"},"data":[0,0,0,0,0,0,0,0,0,0,0,0,0,0,0,0,0,0,0,0,0,0,0,0,0,0,0,0,0,0,0,0,0,0,0,0,0,0,0,0,0,0,0,0,0,0,0,0,0,0,0,0,0,0,0,0,0,0,-3.4461,-3.4462,0,-3.4562,-3.4563,-3.4564,-3.4561,-3.456,-3.4558,-3.4557,-3.4662,-3.4666,-3.467,0,0,0,0,0,0,0,0,0,0,0,0,0,-3.4267,-3.4271,-3.4461,-3.4462,-3.4463,-3.4562,-3.4563,-3.4565,-3.4561,-3.456,-3.4558,-3.4556,-3.466,-3.4665,-3.467,0,0,0,0,0,0,0,0,0,0,0,0,0,-3.4358,-3.4272,-3.4461,-3.4474,-3.4476,-3.4561,-3.4563,-3.4565,-3.4562,-3.456,-3.4557,-3.4555,-3.4659,-3.4665,-3.4671,-3.475,0,0,-3.4689,-3.4692,0,0,0,0,0,0,0,0,-3.4353,-3.4365,-3.447,-3.4473,-3.4475,-3.4547,-3.4533,-3.4627,-3.4562,-3.4529,-3.4557,-3.4554,-3.4625,-3.4634,-3.4657,-3.4755,-3.476,-3.469,-3.4694,-3.4696,-3.4698,0,0,0,0,0,0,0,-3.4347,-3.4361,-3.4501,-3.4472,-3.4475,-3.4475,-3.4486,-3.4551,-3.4588,-3.4532,-3.4532,-3.4544,-3.4626,-3.4652,-3.466,-3.4761,-3.469,-3.4695,-3.4699,-3.4701,-3.493,-3.4932,0,0,0,0,0,0,-3.4337,-3.4356,-3.4498,-3.4504,-3.4408,-3.448,-3.4492,-3.4526,-3.4587,-3.4594,-3.4545,-3.4543,-3.4642,-3.4653,-3.4664,-3.476,-3.4696,-3.4702,-3.4706,-3.4928,-3.4931,-3.4933,0,0,0,0,0,0,-3.4333,-3.435,-3.4494,-3.443,-3.4448,-3.4486,-3.4524,-3.4529,-3.4554,-3.4597,-3.4604,-3.4564,-3.4641,-3.4655,-3.4729,-3.4764,-3.4705,-3.471,-3.4925,-3.4929,-3.4932,-3.4955,0,0,0,0,0,0,-3.4328,-3.4349,-3.4379,-3.4431,-3.4452,-3.4557,-3.4526,-3.4533,-3.4565,-3.4563,-3.4617,-3.4624,-3.464,-3.472,-3.4735,-3.4771,-3.4715,-3.4922,-3.4927,-3.4931,-3.4951,-3.4959,-3.4966,0,0,0,0,0,-3.4321,-3.4382,-3.438,-3.4397,-3.449,-3.4559,-3.4571,-3.4588,-3.4568,-3.4599,-3.4626,-3.4622,-3.4758,-3.4727,-3.4744,-3.4783,-3.492,-3.4925,-3.4931,-3.4948,-3.4958,-3.4965,0,0,0,0,0,0,-3.4333,-3.4388,-3.4388,-3.4467,-3.4508,-3.4558,-3.4597,-3.4597,-3.4645,-3.4642,-3.4662,-3.4674,-3.4748,-3.4773,-3.4738,-3.4864,-3.4837,-3.4846,-3.4844,-3.4853,-3.486,-3.4852,-3.472,0,0,0,0,0,-3.4345,-3.4395,-3.4442,-3.4507,-3.4528,-3.4559,-3.459,-3.46,-3.4643,-3.4661,-3.4694,-3.4736,-3.4789,-3.4823,-3.4874,-3.4956,-3.4967,-3.4991,-3.4998,-3.5004,-3.5011,-3.5056,-3.5067,-3.4951,-3.4951,-3.4951,0,0,-3.437,-3.4407,-3.4437,-3.451,-3.4543,-3.4596,-3.4574,-3.463,-3.4669,-3.4669,-3.474,-3.4767,-3.4816,-3.4894,-3.493,-3.4918,-3.5046,-3.5011,-3.5015,-3.5019,-3.5063,-3.5074,-3.5084,-3.4955,-3.4954,-3.4953,0,0,-3.4442,-3.4475,-3.4533,-3.4566,-3.4617,-3.4637,-3.4651,-3.4702,-3.4719,-3.4791,-3.4792,-3.484,-3.493,-3.4964,-3.4994,-3.5081,-3.5079,-3.5097,-3.5134,-3.5178,-3.5187,-3.5195,-3.5225,-3.5236,-3.5104,-3.5105,-3.5105,0,-3.4466,-3.4544,-3.4562,-3.4619,-3.4651,-3.4654,-3.4713,-3.4745,-3.481,-3.4832,-3.4817,-3.4931,-3.4964,-3.505,-3.5072,-3.5096,-3.5113,-3.509,-3.5184,-3.5192,-3.52,-3.5229,-3.524,-3.5106,-3.5106,-3.5106,-3.5106,0,-3.4572,-3.4626,-3.4667,-3.4729,-3.4766,-3.4824,-3.4851,-3.4887,-3.4894,-3.4916,-3.499,-3.5031,-3.5089,-3.5111,-3.5119,-3.5199,-3.519,-3.518,-3.5152,-3.5213,-3.524,-3.5251,-3.5109,-3.5108,-3.5108,-3.5107,0,0,-3.4652,-3.4724,-3.4738,-3.4766,-3.4823,-3.4865,-3.4924,-3.4981,-3.5011,-3.5056,-3.5105,-3.5182,-3.5173,-3.5207,-3.5219,-3.5258,-3.5323,-3.5243,-3.5244,-3.5255,-3.5413,-3.5419,-3.5431,-3.5323,-3.5325,-3.5327,-3.5408,0,-3.4728,-3.483,-3.4849,-3.4939,-3.4989,-3.4994,-3.5044,-3.5085,-3.5108,-3.5155,-3.5181,-3.5234,-3.5219,-3.5239,-3.5278,-3.5307,-3.5355,-3.5301,-3.5368,-3.5371,-3.5354,-3.5446,-3.5452,-3.5527,-3.5419,-3.5421,-3.5423,0,-3.4831,-3.4878,-3.4972,-3.5022,-3.5044,-3.5089,-3.5143,-3.5188,-3.5235,-3.5249,-3.5287,-3.5295,-3.5356,-3.5328,-3.5413,-3.5376,-3.5405,-3.5424,-3.5427,-3.5432,-3.5399,-3.5452,-3.5551,-3.5562,-3.544,-3.5438,-3.5437,0,-3.4878,-3.4965,-3.5033,-3.5057,-3.5117,-3.5149,-3.5176,-3.522,-3.5254,-3.5302,-3.5323,-3.5378,-3.5408,-3.5451,-3.5474,-3.5451,-3.5557,-3.553,-3.557,-3.5569,-3.559,-3.5588,-3.5694,-3.5612,-3.5612,-3.5612,-3.5611,0,-3.496,-3.5017,-3.5055,-3.5096,-3.516,-3.5182,-3.5246,-3.5272,-3.5312,-3.5359,-3.5368,-3.5412,-3.544,-3.5489,-3.5508,-3.5575,-3.5588,-3.5602,-3.5605,-3.56,-3.5598,-3.5617,-3.5612,-3.5615,-3.5614,-3.5613,-3.5613,0,-3.5023,-3.505,-3.5124,-3.5175,-3.519,-3.5235,-3.5279,-3.532,-3.5344,-3.5403,-3.5418,-3.5456,-3.5514,-3.5541,-3.5613,-3.5626,-3.5701,-3.5703,-3.5685,-3.5686,-3.5724,-3.5719,-3.5844,-3.5861,-3.577,-3.5771,-3.5771,0,-3.5072,-3.5116,-3.5173,-3.5204,-3.5232,-3.5283,-3.5317,-3.5341,-3.5377,-3.5434,-3.5467,-3.5525,-3.5573,-3.5665,-3.5699,-3.5754,-3.5756,-3.5796,-3.5764,-3.5757,-3.5755,-3.5751,-3.5755,-3.5801,-3.5802,-3.5802,-3.5803,0,-3.5157,-3.5169,-3.5217,-3.5271,-3.5311,-3.5355,-3.5398,-3.5424,-3.5455,-3.5494,-3.5553,-3.559,-3.5663,-3.572,-3.5778,-3.5807,-3.581,-3.5813,-3.5825,-3.5818,-3.5806,-3.5812,-3.5699,-3.581,-3.5809,-3.5808,-3.5808,-3.5808,-3.5214,-3.5253,-3.5299,-3.5353,-3.5387,-3.5428,-3.5468,-3.5497,-3.5546,-3.5607,-3.5619,-3.5681,-3.5728,-3.5806,-3.5836,-3.5886,-3.5877,-3.5894,-3.5899,-3.5902,-3.5903,-3.58,-3.5897,-3.5897,-3.5897,-3.5896,-3.5896,0,-3.5298,-3.5328,-3.5377,-3.5437,-3.5479,-3.5479,-3.5527,-3.5563,-3.5617,-3.566,-3.5707,-3.5775,-3.5831,-3.587,-3.5927,-3.5959,-3.5962,-3.5973,-3.597,-3.5976,-3.5909,-3.5892,-3.597,-3.597,-3.597,-3.597,-3.597,-3.597,-3.5346,-3.5412,-3.543,-3.5513,-3.5543,-3.5604,-3.5631,-3.5668,-3.5703,-3.5777,-3.5824,-3.5849,-3.5891,-3.5951,-3.6003,-3.6013,-3.6033,-3.6044,-3.6054,-3.5989,-3.5981,-3.5974,-3.5958,-3.6049,-3.6049,-3.6117,-3.6118,-3.6118]},{"header":{"parameterUnit":"m.s-1","parameterCategory":1,"la1":30.2991,"la2":30.254,"lo1":-89.0895,"lo2":-89.0444,"dy":0.0017,"dx":0.0017,"nx":28,"ny":28,"refTime":"2024-03-13T09:00:00:Z","depth":0,"parameterNumber":3,"parameterNumberName":"V-component_of_WINDS"},"data":[0,0,0,0,0,0,0,0,0,0,0,0,0,0,0,0,0,0,0,0,0,0,0,0,0,0,0,0,0,0,0,0,0,0,0,0,0,0,0,0,0,0,0,0,0,0,0,0,0,0,0,0,0,0,0,0,0,0,2.7597,2.7597,0,2.7622,2.7623,2.7623,2.7613,2.7612,2.7612,2.7611,2.7637,2.7638,2.764,0,0,0,0,0,0,0,0,0,0,0,0,0,2.7541,2.7542,2.7597,2.7597,2.7597,2.7622,2.7623,2.7623,2.7613,2.7612,2.7612,2.7611,2.7637,2.7638,2.764,0,0,0,0,0,0,0,0,0,0,0,0,0,2.7565,2.7542,2.7597,2.7595,2.7596,2.7622,2.7623,2.7623,2.7613,2.7612,2.7611,2.7611,2.7636,2.7638,2.764,2.767,0,0,2.7646,2.7647,0,0,0,0,0,0,0,0,2.7564,2.7568,2.7595,2.7596,2.7596,2.7614,2.7613,2.7639,2.7613,2.7606,2.7611,2.761,2.763,2.7632,2.7639,2.7671,2.7672,2.7646,2.7647,2.7648,2.7648,0,0,0,0,0,0,0,2.7562,2.7566,2.7607,2.7596,2.7596,2.7594,2.7597,2.7617,2.7623,2.7607,2.7606,2.761,2.763,2.7637,2.764,2.7672,2.7646,2.7648,2.7649,2.7649,2.7732,2.7733,0,0,0,0,0,0,2.756,2.7565,2.7606,2.7608,2.7577,2.7596,2.7599,2.7609,2.7623,2.7624,2.761,2.7609,2.7635,2.7638,2.7641,2.7678,2.7648,2.765,2.7651,2.7731,2.7732,2.7733,0,0,0,0,0,0,2.7559,2.7564,2.7605,2.7586,2.7591,2.7598,2.7609,2.761,2.7617,2.7625,2.7626,2.7617,2.7634,2.7638,2.7663,2.7679,2.765,2.7652,2.773,2.7731,2.7733,2.7752,0,0,0,0,0,0,2.7558,2.7564,2.7575,2.7587,2.7592,2.7627,2.761,2.7611,2.762,2.7619,2.7632,2.7633,2.7634,2.766,2.7665,2.7681,2.7654,2.7728,2.773,2.7732,2.775,2.7754,2.7757,0,0,0,0,0,2.7556,2.7578,2.7575,2.758,2.7606,2.7628,2.7631,2.7632,2.7622,2.7633,2.7639,2.7632,2.7676,2.7663,2.7668,2.7685,2.7727,2.773,2.7732,2.7748,2.7753,2.7757,0,0,0,0,0,0,2.7568,2.758,2.7577,2.7604,2.7615,2.7626,2.764,2.7636,2.765,2.7649,2.7649,2.7652,2.7678,2.7684,2.7669,2.7715,2.77,2.7704,2.7711,2.7715,2.7719,2.7718,2.7655,0,0,0,0,0,2.7574,2.759,2.76,2.7623,2.7629,2.7634,2.7643,2.7643,2.7654,2.7659,2.7666,2.7677,2.7694,2.7705,2.772,2.775,2.7754,2.7765,2.7768,2.7771,2.7775,2.7793,2.7799,2.7741,2.7741,2.7741,0,0,2.7586,2.7594,2.7605,2.7625,2.7634,2.7652,2.7637,2.7656,2.767,2.7661,2.7686,2.7692,2.7705,2.7733,2.7746,2.7739,2.7791,2.7774,2.7777,2.7778,2.7796,2.7802,2.7806,2.7743,2.7743,2.7742,0,0,2.7617,2.7625,2.7646,2.7655,2.7669,2.7672,2.7677,2.7689,2.7693,2.7718,2.7713,2.7729,2.7757,2.7767,2.7776,2.7814,2.7809,2.7819,2.7838,2.7856,2.7861,2.7865,2.788,2.7885,2.7822,2.7822,2.7822,0,2.7631,2.7657,2.7657,2.7677,2.7687,2.7681,2.7704,2.7712,2.773,2.7738,2.7729,2.7766,2.7774,2.7806,2.7815,2.7822,2.7829,2.7817,2.786,2.7864,2.7868,2.7883,2.7888,2.7823,2.7823,2.7823,2.7823,0,2.7674,2.7692,2.7708,2.7726,2.7738,2.7759,2.7763,2.7775,2.7774,2.7779,2.7805,2.7815,2.7833,2.784,2.7839,2.7873,2.7868,2.786,2.7845,2.7875,2.7889,2.7894,2.7825,2.7824,2.7824,2.7824,0,0,2.7713,2.7733,2.7738,2.7748,2.7763,2.7777,2.7799,2.7817,2.7828,2.7841,2.786,2.7885,2.7878,2.7888,2.7888,2.7904,2.7935,2.7894,2.7894,2.7903,2.7975,2.7982,2.7988,2.7932,2.7933,2.7934,2.7975,0,2.7747,2.7785,2.7787,2.7821,2.7839,2.7834,2.7853,2.7865,2.787,2.7887,2.7893,2.7911,2.79,2.7906,2.7921,2.7928,2.795,2.7925,2.7951,2.7952,2.7949,2.7995,2.8002,2.804,2.798,2.7981,2.7981,0,2.7792,2.7807,2.7844,2.7858,2.7866,2.7883,2.7901,2.7917,2.7931,2.7933,2.7946,2.7944,2.7967,2.7951,2.7983,2.7966,2.7977,2.7982,2.7984,2.7987,2.7969,2.8001,2.8052,2.8058,2.7989,2.7989,2.7988,0,2.7819,2.7849,2.7875,2.7883,2.79,2.7913,2.792,2.7933,2.7945,2.7961,2.7969,2.7987,2.7997,2.8012,2.8015,2.8003,2.8048,2.8032,2.8053,2.8053,2.8063,2.8063,2.8118,2.8067,2.8067,2.8067,2.8067,0,2.7858,2.7881,2.7888,2.7904,2.7931,2.7933,2.7959,2.7965,2.7978,2.7996,2.7992,2.801,2.8013,2.8031,2.8034,2.8062,2.8066,2.807,2.807,2.8071,2.8071,2.8078,2.8077,2.8069,2.8068,2.8068,2.8068,0,2.7894,2.7899,2.7928,2.7942,2.7946,2.7965,2.7978,2.7994,2.7999,2.8022,2.8028,2.8036,2.8058,2.8063,2.8088,2.809,2.8124,2.8121,2.8119,2.8119,2.814,2.8139,2.8204,2.8213,2.8155,2.8156,2.8156,0,2.7919,2.7936,2.7953,2.7965,2.7974,2.7993,2.8006,2.8009,2.8022,2.804,2.8055,2.8076,2.8093,2.8128,2.8136,2.8156,2.8155,2.8176,2.8158,2.8159,2.8158,2.8157,2.816,2.818,2.8181,2.8181,2.8182,0,2.7963,2.7966,2.7983,2.8003,2.8018,2.8033,2.8048,2.8058,2.8063,2.8078,2.8101,2.8114,2.8141,2.8163,2.8183,2.8191,2.8188,2.8187,2.8194,2.8195,2.8194,2.8197,2.813,2.8186,2.8186,2.8185,2.8185,2.8185,2.7996,2.8012,2.8027,2.8048,2.8059,2.8073,2.809,2.8098,2.8117,2.8139,2.8139,2.8164,2.8179,2.8206,2.8216,2.8236,2.823,2.8238,2.824,2.8243,2.8246,2.819,2.824,2.8239,2.8239,2.8239,2.8239,0,2.8042,2.8052,2.807,2.8092,2.8108,2.8104,2.812,2.8135,2.8157,2.8171,2.8189,2.8215,2.8237,2.8247,2.8269,2.8283,2.8282,2.8289,2.8289,2.8291,2.8249,2.8243,2.8289,2.8289,2.8289,2.8289,2.8289,2.8289,2.8068,2.8096,2.8101,2.8135,2.8145,2.8169,2.818,2.8193,2.8205,2.8235,2.8253,2.826,2.8273,2.8296,2.8316,2.8319,2.8328,2.8335,2.8338,2.8299,2.8294,2.8289,2.8283,2.8337,2.8337,2.8378,2.8378,2.8378]}]]